Flag for USA

Past Weather in Pembroke Pines, Florida, USA — Yesterday and Last 2 Weeks

Now
84 °F

Passing clouds.


Feels Like: 96 °F
Forecast: 91 / 80 °F
Wind: 3 mph from North

Location: North Perry Airport
Current Time: Aug 11, 2020 at 9:53:06 am
Latest Report: Aug 11, 2020 at 8:53 am
Visibility: 10 mi
Pressure30.05 "Hg
Humidity: 85%
Dew Point: 79 °F
Location of Pembroke PinesLocation

Past Weather in Pembroke Pines — Graph

°F

Pembroke Pines Temperature Yesterday

Maximum temperature yesterday: 92 °F (at 12:53 pm)
Minimum temperature yesterday: 82 °F (at 5:53 am)
Average temperature yesterday: 86 °F

High & Low Weather Summary for the Past Weeks

 TemperatureHumidityPressure
High109 °F (Aug 6, 5:53 am)100% (Aug 1, 10:01 am)30.16 "Hg (Aug 1, 10:01 am)
Low4 °F (Aug 6, 8:53 am)38% (Aug 6, 5:53 am)29.70 "Hg (Aug 2, 5:53 am)
Average83 °F80%30.02 "Hg
* Reported Jul 27 7:53 am — Aug 11 7:53 am, Pembroke Pines. Weather by CustomWeather, © 2020

Note: Actual official high and low records may vary slightly from our data, if they occured in-between our weather recording intervals... More about our weather records

Pembroke Pines Weather History for the Previous 24 Hours

Scroll right to see more
 ConditionsComfort  
Time TempWeatherWind HumidityBarometerVisibility
7:53 am
Tue, Aug 11
82 °FSunny.5 mph91%30.03 "Hg10 mi
6:53 am81 °FSunny.3 mph94%30.02 "Hg10 mi
5:53 am81 °FClear.No wind91%30.01 "Hg10 mi
4:53 am81 °FPassing clouds.No wind94%30.01 "Hg10 mi
3:53 am82 °FClear.No wind88%30.01 "Hg10 mi
2:53 am83 °FClear.3 mph85%30.02 "Hg10 mi
1:53 am83 °FClear.No wind85%30.03 "Hg10 mi
12:53 am84 °FClear.No wind83%30.04 "Hg10 mi
11:53 pm
Mon, Aug 10
84 °FClear.7 mph83%30.04 "Hg10 mi
10:53 pm84 °FClear.7 mph80%30.04 "Hg10 mi
9:53 pm85 °FPassing clouds.6 mph77%30.05 "Hg10 mi
8:53 pm85 °FClear.5 mph75%30.05 "Hg10 mi
7:53 pm86 °FScattered clouds.8 mph75%30.03 "Hg10 mi
6:53 pm87 °FScattered clouds.8 mph72%30.03 "Hg10 mi
5:53 pm88 °FPassing clouds.15 mph65%30.03 "Hg10 mi
4:53 pm90 °FPassing clouds.15 mph63%30.04 "Hg10 mi
3:53 pm91 °FScattered clouds.13 mph61%30.06 "Hg10 mi
2:53 pm91 °FScattered clouds.14 mph64%30.06 "Hg10 mi
1:53 pm92 °FPassing clouds.12 mph62%30.09 "Hg10 mi
12:53 pm92 °FScattered clouds.10 mph60%30.10 "Hg10 mi
11:53 am91 °FPassing clouds.10 mph66%30.10 "Hg10 mi
10:53 am90 °FScattered clouds.9 mph66%30.10 "Hg10 mi
9:53 am89 °FScattered clouds.7 mph68%30.10 "Hg10 mi
Weather by CustomWeather, © 2020

See weather overview